[Iaude] MPEC X67: 2023 XE1 [a=1.88,e=0.44,i=7.7,H=25.9]

mpec at marsden.cfa.harvard.edu mpec at marsden.cfa.harvard.edu
Tue Dec 5 09:35:53 EST 2023


M.P.E.C. 2023-X67                              Issued 2023 December 5, 14:34 UT

     The Minor Planet Electronic Circulars contain information on unusual
         minor planets, routine data on comets and natural satellites,
         and occasional editorial announcements.  They are published
    on behalf of Division F of the International Astronomical Union by the
          Minor Planet Center, Smithsonian Astrophysical Observatory,
                          Cambridge, MA 02138, U.S.A.
			  
             Prepared using the Tamkin Foundation Computer Network

                              MPC at CFA.HARVARD.EDU
            URL https://www.minorplanetcenter.net/    ISSN 1523-6714

                                    2023 XE1                                    


Observations:
     K23X01E  C2023 11 20.31346501 46 36.463+46 57 38.87         21.50GVEX067F51
     K23X01E  C2023 11 20.33900401 46 53.031+46 57 06.61         22.48GVEX067F51
     K23X01E  C2023 11 20.35167601 47 01.252+46 56 50.06         22.16GVEX067F51
     K23X01E*1C2023 12 03.32675504 36 17.917+30 23 06.07         20.62GVEX067G96
     K23X01E 1C2023 12 03.33715404 36 24.358+30 21 48.35         20.10GVEX067G96
     K23X01E 1C2023 12 03.34235004 36 27.623+30 21 09.36         20.00GVEX067G96
     K23X01E KC2023 12 03.42120304 37 17.090+30 11 15.40         20.94GVEX067I52
     K23X01E KC2023 12 03.42249204 37 17.940+30 11 05.70         20.36GVEX067I52
     K23X01E KC2023 12 04.19484604 45 56.940+28 35 33.60               VEX067I52
     K23X01E KC2023 12 04.19577204 45 57.520+28 35 26.70         20.63GVEX067I52
     K23X01E KC2023 12 04.19669804 45 58.090+28 35 19.90         20.62GVEX067I52
     K23X01E KC2023 12 04.19762804 45 58.670+28 35 12.70         20.65GVEX067I52
     K23X01E KC2023 12 04.20128004 46 00.17 +28 34 43.3          20.0 GXEX067858
     K23X01E KC2023 12 04.21065104 46 05.78 +28 33 34.9          19.8 GXEX067858
     K23X01E KC2023 12 04.21995804 46 11.35 +28 32 26.9          19.5 GXEX067858
     K23X01E  C2023 12 04.34277004 47 31.262+28 17 38.19         20.79wXEX067F52
     K23X01E  C2023 12 04.35311804 47 37.299+28 16 23.39         20.47wXEX067F52
     K23X01E  C2023 12 04.36351004 47 43.417+28 15 06.71         20.77wXEX067F52

Observer details:
858 Tebbutt Observatory, Edgewood.  Observer F. B. Zoltowski.  0.51-m f/8.1
    Schmidt-Cassegrain + CCD.
F51 Pan-STARRS 1, Haleakala.  Observers J. Herman, T. Lowe, P. Minguez, A.
    Schultz, I. Smith.  Measurers K. Chambers, T. de Boer, J. Fairlamb, H.
    Gao, M. Huber, C.-C. Lin, E. Magnier, Y. Ramanjooloo, R. Wainscoat, R.
    Weryk.  1.8-m Ritchey-Chretien + CCD.
F52 Pan-STARRS 2, Haleakala.  Observers J. Herman, T. Lowe, P. Minguez, A.
    Schultz, I. Smith.  Measurers K. Chambers, T. de Boer, J. Fairlamb, H.
    Gao, M. Huber, C.-C. Lin, E. Magnier, Y. Ramanjooloo, R. Wainscoat, R.
    Weryk.  1.8-m Ritchey-Chretien + CCD.
G96 Mt. Lemmon Survey.  Observer H. Groeller.  Measurers E. C. Beshore, D.
    Fay, J. B. Fazekas, D. C. Fuls, A. R. Gibbs, A. D. Grauer, H. Groeller, J.
    K. Hogan, R. A. Kowalski, S. M. Larson, G. J. Leonard, D. Rankin, R. L.
    Seaman, F. C. Shelly, K. W. Wierzchos.  1.5-m reflector + 10K CCD.
I52 Steward Observatory, Mt. Lemmon Station.  Observers R. A. Kowalski, G. J.
    Leonard.  Measurers E. C. Beshore, D. Fay, J. B. Fazekas, D. C. Fuls, A.
    R. Gibbs, A. D. Grauer, H. Groeller, J. K. Hogan, R. A. Kowalski, S. M.
    Larson, G. J. Leonard, D. Rankin, R. L. Seaman, F. C. Shelly, K. W.
    Wierzchos.  1.0-m prime focus + CCD.

Orbital elements:
2023 XE1                                                 Earth MOID = 0.0662 AU
Epoch 2023 Sept. 13.0 TT = JDT 2460200.5                Veres                   
M 330.87034              (2000.0)            P               Q                  
n   0.38191303     Peri.  170.54430     +0.42051036     -0.89797494             
a   1.8814517      Node   254.49794     +0.82338001     +0.43772806             
e   0.4414204      Incl.    7.73297     +0.38107269     +0.04511273             
P   2.58           H   25.95          G   0.15           U   8                  
Residuals in seconds of arc
231120 F51  0.5+  0.1-    231203 I52  0.0   0.2+    231204 858  0.2+  0.1-
231120 F51  0.1-  0.1-    231203 I52  0.4+  0.3+    231204 858  0.1+  0.1-
231120 F51  0.4-  0.2+    231204 I52  0.3-  0.2+    231204 858  0.2+  0.1+
231203 G96  0.0   0.2+    231204 I52  0.0   0.0     231204 F52  0.2+  0.0
231203 G96  0.4-  0.3-    231204 I52  0.1+  0.0     231204 F52  0.4-  0.7+
231203 G96  0.1-  0.5-    231204 I52  0.4+  0.5-    231204 F52  0.0   0.0

Ephemeris:
2023 XE1                 a,e,i = 1.88, 0.44, 8                   q = 1.0509
Date    TT    R. A. (2000) Decl.     Delta      r    Elong.  Phase     V
2023 11 05    23 54 27.4 +45 48 04   0.1242  1.0821   134.3    41.0    23.2
...
2023 11 20    01 42 52.4 +47 03 25   0.08141 1.0550   143.7    33.7    22.0
...
2023 11 28    03 28 55.8 +40 03 34   0.06853 1.0509   158.9    19.7    21.2
...
2023 12 04    04 43 45.1 +29 00 11   0.06757 1.0528   173.0     6.5    20.7
2023 12 05    04 54 16.7 +26 55 37   0.06825 1.0536   174.7     5.0    20.7
2023 12 06    05 04 10.5 +24 50 58   0.06917 1.0544   175.4     4.3    20.6
...
2023 12 12    05 51 09.3 +13 24 27   0.07912 1.0619   166.9    12.1    21.3
...
2023 12 20    06 28 45.8 +02 57 16   0.1013  1.0781   157.4    20.5    22.2
...
2024 01 04    07 01 01.2 -05 08 04   0.1585  1.1257   152.0    24.2    23.3

M. P. C. Staff               (C) Copyright 2023 MPC           M.P.E.C. 2023-X67





More information about the Iaude mailing list